OAL101 LFTZ-LFMP

Flight info

Callsign OAL101
Flight time 0h 45m
Altitude 6500
Route CO NFA SL GS WT SR SALIN AKUNU NL E EA
Aircraft SF50/L-SDGRWY/L

Departure

Time 2026-04-22 20:03
Airport La Môle Airport (LFTZ)

Arrival

Time 2026-04-22 20:48
Airport Perpignan-Rivesaltes (Llabanère) Airport (LFMP)
Time Latitude Longitude Altitude Speed Heading
2026-04-22 19:55 43.20359 6.47543 74 ft 0 kts 149°
2026-04-22 20:00 43.20358 6.47544 74 ft 0 kts 148°
2026-04-22 20:01 43.20350 6.47541 74 ft 1 kts 240°
2026-04-22 20:01 43.20338 6.47533 74 ft 3 kts 213°
2026-04-22 20:01 43.20314 6.47509 74 ft 0 kts 163°
2026-04-22 20:01 43.20301 6.47528 74 ft 8 kts 114°
2026-04-22 20:02 43.20313 6.47584 74 ft 0 kts 59°
2026-04-22 20:02 43.20324 6.47615 74 ft 23 kts 69°
2026-04-22 20:02 43.20531 6.48147 75 ft 99 kts 60°
2026-04-22 20:03 43.20898 6.49052 436 ft 125 kts 60°
2026-04-22 20:03 43.21335 6.50160 969 ft 150 kts 64°
2026-04-22 20:03 43.21858 6.51561 1313 ft 178 kts 63°
2026-04-22 20:03 43.22467 6.53139 1620 ft 198 kts 57°
2026-04-22 20:04 43.23705 6.54120 1958 ft 225 kts 10°
2026-04-22 20:04 43.25292 6.53597 2368 ft 248 kts 331°
2026-04-22 20:04 43.26384 6.51740 2766 ft 265 kts 294°
2026-04-22 20:04 43.26620 6.49200 3182 ft 273 kts 271°
2026-04-22 20:05 43.26042 6.46757 3573 ft 274 kts 234°
2026-04-22 20:05 43.24972 6.44572 3981 ft 275 kts 234°
2026-04-22 20:05 43.23896 6.42426 4386 ft 274 kts 234°
2026-04-22 20:05 43.22808 6.40282 4794 ft 273 kts 234°
2026-04-22 20:06 43.21716 6.38168 5191 ft 273 kts 234°
2026-04-22 20:06 43.20783 6.35921 5555 ft 271 kts 258°
2026-04-22 20:06 43.20958 6.33448 5972 ft 262 kts 295°
2026-04-22 20:06 43.22013 6.31473 6383 ft 256 kts 312°
2026-04-22 20:07 43.22953 6.29428 6765 ft 259 kts 291°
2026-04-22 20:07 43.23397 6.27054 7170 ft 258 kts 281°
2026-04-22 20:07 43.23660 6.24629 7569 ft 256 kts 281°
2026-04-22 20:07 43.23886 6.22227 7972 ft 254 kts 281°
2026-04-22 20:08 43.24110 6.19810 8384 ft 253 kts 281°
2026-04-22 20:08 43.24324 6.17422 8758 ft 251 kts 281°
2026-04-22 20:08 43.24547 6.14988 8779 ft 263 kts 281°
2026-04-22 20:08 43.24366 6.12480 8441 ft 278 kts 251°
2026-04-22 20:09 43.23171 6.10381 8073 ft 278 kts 229°
2026-04-22 20:09 43.21842 6.08457 7693 ft 273 kts 230°
2026-04-22 20:09 43.20556 6.06578 7320 ft 271 kts 230°
2026-04-22 20:09 43.19261 6.04688 6957 ft 278 kts 230°
2026-04-22 20:10 43.18045 6.02604 6587 ft 282 kts 245°
2026-04-22 20:10 43.17046 6.00270 6501 ft 277 kts 244°
2026-04-22 20:10 43.16095 5.98012 6484 ft 272 kts 243°
2026-04-22 20:10 43.15155 5.95792 6478 ft 270 kts 243°
2026-04-22 20:11 43.14217 5.93570 6482 ft 268 kts 243°
2026-04-22 20:11 43.13286 5.91367 6479 ft 267 kts 243°
2026-04-22 20:11 43.12353 5.89157 6481 ft 266 kts 243°
2026-04-22 20:11 43.11771 5.86835 6477 ft 257 kts 274°
2026-04-22 20:12 43.11968 5.84419 6492 ft 254 kts 282°
2026-04-22 20:12 43.12253 5.82064 6480 ft 254 kts 283°
2026-04-22 20:12 43.12454 5.80469 6478 ft 254 kts 283°
2026-04-22 20:12 43.12850 5.77290 6479 ft 254 kts 283°
2026-04-22 20:13 43.13151 5.74908 6480 ft 254 kts 283°
2026-04-22 20:13 43.13452 5.72484 6481 ft 254 kts 283°
2026-04-22 20:13 43.13746 5.70121 6482 ft 254 kts 283°
2026-04-22 20:13 43.14046 5.67712 6481 ft 254 kts 283°
2026-04-22 20:14 43.14344 5.65307 6481 ft 254 kts 283°
2026-04-22 20:14 43.14640 5.62912 6480 ft 254 kts 283°
2026-04-22 20:14 43.14936 5.60533 6481 ft 254 kts 283°
2026-04-22 20:14 43.14997 5.58105 6478 ft 255 kts 275°
2026-04-22 20:15 43.15005 5.55666 6483 ft 256 kts 274°
2026-04-22 20:15 43.15006 5.53168 6482 ft 261 kts 273°
2026-04-22 20:15 43.15006 5.50676 6482 ft 265 kts 273°
2026-04-22 20:15 43.15005 5.48114 6481 ft 267 kts 273°
2026-04-22 20:16 43.15007 5.45591 6481 ft 268 kts 273°
2026-04-22 20:16 43.15005 5.43019 6481 ft 269 kts 273°
2026-04-22 20:16 43.15001 5.40452 6480 ft 270 kts 273°
2026-04-22 20:16 43.15098 5.37899 6451 ft 268 kts 288°
2026-04-22 20:17 43.15602 5.35454 6480 ft 266 kts 289°
2026-04-22 20:17 43.16102 5.33025 6478 ft 266 kts 288°
2026-04-22 20:17 43.16605 5.30578 6480 ft 266 kts 288°
2026-04-22 20:17 43.17109 5.28124 6480 ft 267 kts 288°
2026-04-22 20:18 43.17610 5.25685 6478 ft 267 kts 288°
2026-04-22 20:18 43.18117 5.23213 6467 ft 266 kts 288°
2026-04-22 20:18 43.18610 5.20802 6478 ft 266 kts 288°
2026-04-22 20:18 43.19111 5.18344 6479 ft 264 kts 287°
2026-04-22 20:19 43.19604 5.15941 6484 ft 260 kts 287°
2026-04-22 20:19 43.20088 5.13573 6470 ft 259 kts 288°
2026-04-22 20:19 43.20572 5.11207 6479 ft 258 kts 287°
2026-04-22 20:19 43.21052 5.08838 6483 ft 256 kts 288°
2026-04-22 20:20 43.21532 5.06488 6477 ft 256 kts 288°
2026-04-22 20:20 43.22009 5.04144 6471 ft 256 kts 287°
2026-04-22 20:20 43.22484 5.01795 6474 ft 255 kts 287°
2026-04-22 20:20 43.22960 4.99444 6478 ft 255 kts 288°
2026-04-22 20:21 43.23436 4.97098 6478 ft 255 kts 287°
2026-04-22 20:21 43.23909 4.94757 6477 ft 255 kts 287°
2026-04-22 20:21 43.24383 4.92415 6477 ft 255 kts 287°
2026-04-22 20:21 43.24853 4.90083 6476 ft 255 kts 288°
2026-04-22 20:22 43.25325 4.87745 6477 ft 255 kts 288°
2026-04-22 20:22 43.25795 4.85412 6477 ft 255 kts 287°
2026-04-22 20:22 43.26269 4.83055 6477 ft 255 kts 288°
2026-04-22 20:22 43.26740 4.80710 6477 ft 255 kts 288°
2026-04-22 20:23 43.27213 4.78363 6477 ft 255 kts 288°
2026-04-22 20:23 43.27678 4.76039 6476 ft 255 kts 287°
2026-04-22 20:23 43.28143 4.73690 6476 ft 255 kts 285°
2026-04-22 20:23 43.28064 4.71245 6478 ft 257 kts 265°
2026-04-22 20:24 43.27829 4.68810 6478 ft 257 kts 265°
2026-04-22 20:24 43.27585 4.66405 6478 ft 257 kts 264°
2026-04-22 20:24 43.27327 4.63943 6476 ft 258 kts 264°
2026-04-22 20:24 43.27076 4.61537 6477 ft 258 kts 264°
2026-04-22 20:25 43.26818 4.59094 6476 ft 258 kts 264°
2026-04-22 20:25 43.26561 4.56658 6477 ft 258 kts 263°
2026-04-22 20:25 43.26304 4.54240 6477 ft 258 kts 263°
2026-04-22 20:25 43.26047 4.51819 6476 ft 258 kts 264°
2026-04-22 20:26 43.25786 4.49369 6477 ft 258 kts 264°
2026-04-22 20:26 43.25531 4.46951 6477 ft 258 kts 264°
2026-04-22 20:26 43.25270 4.44500 6478 ft 258 kts 263°
2026-04-22 20:26 43.25009 4.42068 6477 ft 258 kts 264°
2026-04-22 20:27 43.24748 4.39641 6477 ft 258 kts 264°
2026-04-22 20:27 43.24486 4.37216 6477 ft 258 kts 263°
2026-04-22 20:27 43.24228 4.34798 6476 ft 258 kts 263°
2026-04-22 20:27 43.23964 4.32362 6477 ft 258 kts 263°
2026-04-22 20:28 43.23699 4.29916 6477 ft 258 kts 263°
2026-04-22 20:28 43.23439 4.27497 6477 ft 258 kts 263°
2026-04-22 20:28 43.23176 4.25072 6475 ft 258 kts 263°
2026-04-22 20:28 43.22912 4.22638 6477 ft 257 kts 263°
2026-04-22 20:29 43.22646 4.20223 6477 ft 257 kts 263°
2026-04-22 20:29 43.22382 4.17812 6477 ft 257 kts 263°
2026-04-22 20:29 43.22115 4.15364 6476 ft 257 kts 263°
2026-04-22 20:29 43.21851 4.12948 6476 ft 257 kts 263°
2026-04-22 20:30 43.21589 4.10548 6477 ft 257 kts 263°
2026-04-22 20:30 43.21321 4.08132 6478 ft 257 kts 263°
2026-04-22 20:30 43.21053 4.05716 6477 ft 257 kts 263°
2026-04-22 20:30 43.20785 4.03280 6476 ft 257 kts 263°
2026-04-22 20:31 43.20517 4.00870 6477 ft 256 kts 263°
2026-04-22 20:31 43.20253 3.98470 6476 ft 259 kts 263°
2026-04-22 20:31 43.19980 3.96014 6478 ft 261 kts 263°
2026-04-22 20:31 43.19702 3.93544 6476 ft 262 kts 263°
2026-04-22 20:32 43.19428 3.91075 6475 ft 262 kts 263°
2026-04-22 20:32 43.19151 3.88597 6476 ft 263 kts 263°
2026-04-22 20:32 43.18872 3.86108 6477 ft 263 kts 263°
2026-04-22 20:32 43.18595 3.83644 6476 ft 264 kts 263°
2026-04-22 20:33 43.18315 3.81156 6477 ft 263 kts 263°
2026-04-22 20:33 43.18039 3.78701 6475 ft 263 kts 263°
2026-04-22 20:33 43.17759 3.76218 6477 ft 263 kts 263°
2026-04-22 20:33 43.17477 3.73745 6478 ft 263 kts 263°
2026-04-22 20:34 43.17196 3.71260 6478 ft 263 kts 263°
2026-04-22 20:34 43.16917 3.68801 6477 ft 263 kts 263°
2026-04-22 20:34 43.16634 3.66323 6477 ft 263 kts 263°
2026-04-22 20:34 43.16352 3.63850 6477 ft 262 kts 263°
2026-04-22 20:35 43.16071 3.61394 6476 ft 262 kts 263°
2026-04-22 20:35 43.15788 3.58915 6476 ft 262 kts 263°
2026-04-22 20:35 43.15505 3.56456 6474 ft 262 kts 263°
2026-04-22 20:35 43.15220 3.53976 6474 ft 262 kts 263°
2026-04-22 20:36 43.14938 3.51544 6476 ft 262 kts 263°
2026-04-22 20:36 43.14654 3.49077 6479 ft 262 kts 263°
2026-04-22 20:36 43.14369 3.46618 6480 ft 262 kts 263°
2026-04-22 20:36 43.14084 3.44144 6478 ft 262 kts 263°
2026-04-22 20:37 43.13800 3.41696 6475 ft 261 kts 263°
2026-04-22 20:37 43.13512 3.39229 6479 ft 261 kts 263°
2026-04-22 20:37 43.12890 3.36931 6472 ft 265 kts 233°
2026-04-22 20:37 43.11666 3.35061 6478 ft 265 kts 229°
2026-04-22 20:38 43.10397 3.33216 6480 ft 265 kts 227°
2026-04-22 20:38 43.09121 3.31371 6477 ft 265 kts 228°
2026-04-22 20:38 43.07847 3.29539 6478 ft 266 kts 228°
2026-04-22 20:38 43.06563 3.27699 6476 ft 266 kts 228°
2026-04-22 20:39 43.05274 3.25860 6486 ft 275 kts 227°
2026-04-22 20:39 43.03923 3.23930 6484 ft 286 kts 227°
2026-04-22 20:39 43.02542 3.21960 6482 ft 292 kts 227°
2026-04-22 20:39 43.01133 3.19952 6477 ft 296 kts 227°
2026-04-22 20:40 42.99695 3.17905 6471 ft 298 kts 227°
2026-04-22 20:40 42.98291 3.15908 6456 ft 270 kts 227°
2026-04-22 20:40 42.97005 3.14077 6387 ft 266 kts 227°
2026-04-22 20:40 42.95728 3.12261 6256 ft 266 kts 227°
2026-04-22 20:41 42.94446 3.10438 6047 ft 265 kts 227°
2026-04-22 20:41 42.93182 3.08641 5813 ft 255 kts 227°
2026-04-22 20:41 42.91979 3.06935 5587 ft 250 kts 227°
2026-04-22 20:41 42.90571 3.05640 5338 ft 242 kts 194°
2026-04-22 20:42 42.88935 3.05234 5117 ft 234 kts 188°
2026-04-22 20:42 42.87339 3.04932 4885 ft 230 kts 187°
2026-04-22 20:42 42.85762 3.04648 4655 ft 228 kts 186°
2026-04-22 20:42 42.84196 3.04371 4429 ft 225 kts 186°
2026-04-22 20:43 42.82650 3.04096 4203 ft 222 kts 186°
2026-04-22 20:43 42.81120 3.03826 3976 ft 220 kts 185°
2026-04-22 20:43 42.79606 3.03556 3748 ft 218 kts 186°
2026-04-22 20:43 42.78280 3.02649 3505 ft 221 kts 229°
2026-04-22 20:44 42.77521 3.00826 3263 ft 221 kts 243°
2026-04-22 20:44 42.76866 2.98921 3014 ft 222 kts 245°
2026-04-22 20:44 42.76359 2.96957 2768 ft 222 kts 251°
2026-04-22 20:44 42.75900 2.94950 2521 ft 222 kts 252°
2026-04-22 20:45 42.75950 2.92884 2254 ft 223 kts 296°
2026-04-22 20:45 42.76942 2.91318 2020 ft 219 kts 316°
2026-04-22 20:45 42.78023 2.89888 1773 ft 217 kts 318°
2026-04-22 20:45 42.79053 2.88411 1522 ft 214 kts 301°
2026-04-22 20:46 42.78923 2.85184 1692 ft 146 kts 251°
2026-04-22 20:46 42.78433 2.84181 1559 ft 119 kts 198°
2026-04-22 20:46 42.77660 2.84256 1022 ft 119 kts 149°
2026-04-22 20:47 42.77040 2.84800 670 ft 98 kts 142°
2026-04-22 20:47 42.76510 2.85258 435 ft 82 kts 143°
2026-04-22 20:47 42.76054 2.85639 288 ft 72 kts 143°
2026-04-22 20:47 42.75584 2.86049 222 ft 81 kts 143°
2026-04-22 20:48 42.75120 2.86419 156 ft 69 kts 143°
2026-04-22 20:48 42.74801 2.86701 136 ft 44 kts 146°
2026-04-22 20:48 42.74582 2.86890 132 ft 32 kts 137°
2026-04-22 20:48 42.74429 2.87004 131 ft 21 kts 146°
2026-04-22 20:49 42.74318 2.87090 132 ft 15 kts 157°
2026-04-22 20:49 42.74218 2.87169 132 ft 25 kts 146°
2026-04-22 20:49 42.74138 2.87222 133 ft 8 kts 176°
2026-04-22 20:49 42.74042 2.87161 136 ft 17 kts 220°
2026-04-22 20:50 42.74053 2.87074 137 ft 6 kts 326°
2026-04-22 20:50 42.74133 2.87009 137 ft 13 kts 328°
2026-04-22 20:50 42.74195 2.86939 137 ft 15 kts 313°
2026-04-22 20:50 42.74341 2.86808 137 ft 10 kts 332°
2026-04-22 20:51 42.74361 2.86754 138 ft 4 kts 239°
2026-04-22 20:51 42.74329 2.86757 138 ft 6 kts 208°
2026-04-22 20:51 42.74327 2.86749 138 ft 0 kts 283°
2026-04-22 20:51 42.74329 2.86742 138 ft 0 kts 296°